Regional Weather Roundup
Issued by NWS

Home | Current Version | Previous Version | Graphics & Text | Print | Product List | Glossary On
Versions: 1 2 3 4 5 6 7 8 9 10 11 12 13 14 15 16 17 18 19 20 21 22 23 24 25 26 27 28 29 30 31 32 33 34 35 36 37 38 39 40 41 42 43 44 45 46 47 48 49 50
000
ASUS43 KTOP 221308
RWRKS

WEATHER ROUNDUP FOR KANSAS
NATIONAL WEATHER SERVICE GOODLAND KS
700 AM CST THU FEB 22 2018

NOTE:  "FAIR" INDICATES FEW OR NO CLOUDS BELOW 12,000 FEET WITH NO
SIGNIFICANT WEATHER AND/OR OBSTRUCTIONS TO VISIBILITY.

KSZ001>006-013>018-027>032-041>047-221400-
NORTHWEST KANSAS

CITY           SKY/WX    TMP DP  RH WIND       PRES   REMARKS
GOODLAND       CLOUDY    18   5  57 SE12      30.17R WCI   5
HAYS           CLOUDY    21  19  92 E6        30.30R
HILL CITY      CLOUDY    21  19  92 E7        30.30R
RUSSELL        CLOUDY    24  22  91 NE7       30.28F FOG
$$

KSZ061>065-074>080-084>089-221400-
SOUTHWEST KANSAS

CITY           SKY/WX    TMP DP  RH WIND       PRES   REMARKS
DODGE CITY     CLOUDY    20  18  92 CALM      30.26R FOG
ELKHART        FAIR      23  15  69 S9        30.17S
GARDEN CITY    CLOUDY    19  13  77 SE5       30.23S
GREAT BEND     CLOUDY    23  21  92 E5        30.33R FOG
LIBERAL        CLOUDY    20  16  84 SE5       30.25S
PRATT          CLOUDY    24  22  93 E5        30.31R FOG
$$

KSZ066>073-081>083-090>101-221400-
SOUTHEAST KANSAS

CITY           SKY/WX    TMP DP  RH WIND       PRES   REMARKS
CHANUTE        CLOUDY    30  29  96 NE7       30.36F
COFFEYVILLE    CLOUDY    31  30  96 NE8       30.34F
HUTCHINSON     CLOUDY    27  26  96 NE5       30.31S FOG
MEDICINE LODGE   N/A     26  23  88 NE3       30.33R
NEWTON         CLOUDY    25  24  96 E8        30.31F
PARSONS        CLOUDY    31  30  96 VRB5      30.35F
WICHITA INTL   CLOUDY    28  27  96 E6        30.32S
WICHITA JABRA  CLOUDY    26  26 100 E7        30.30S
WICHITA MCCONL CLOUDY    27  27 100 NE5       30.31
WINFIELD       CLOUDY    28  28 100 E5        30.33S
$$

KSZ007>012-019>026-033>040-048>060-102>105-221400-
NORTHEAST KANSAS

CITY           SKY/WX    TMP DP  RH WIND       PRES   REMARKS
CONCORDIA      CLOUDY    23  22  96 E7        30.33F
EMPORIA        CLOUDY    26  25  96 E10       30.33F FOG     WCI  16
LAWRENCE       CLOUDY    28  27  96 NE7       30.40F FOG
MANHATTAN      CLOUDY    29  26  89 E7        30.35F
MARYSVILLE     FLURRIES  27  23  86 E7        30.36F
OLATHE IND     CLOUDY    27  26  96 E6        30.40R FOG
OLATHE EXE     CLOUDY    26  26 100 E6        30.39R FOG
SALINA         CLOUDY    28  26  92 NE8       30.32F
TOPEKA BILLARD CLOUDY    28  27  96 E10       30.38F FOG     WCI  19
TOPEKA FORBES  CLOUDY    28  26  92 E9        30.36F FOG
$$



USA.gov is the U.S. government's official web portal to all federal, state and local government web resources and services.